TimeCDT,TemperatureF,Dew PointF,Humidity,Sea Level PressureIn,VisibilityMPH,Wind Direction,Wind SpeedMPH,Gust SpeedMPH,PrecipitationIn,Events,Conditions,WindDirDegrees,DateUTC
12:03 AM,30.2,28.4,93,29.82,1.0,North,9.2,-,0.00,Snow,Light Snow,350,2013-04-11 05:03:00
12:19 AM,30.2,28.4,93,29.82,0.8,North,10.4,-,0.02,Snow,Light Snow,360,2013-04-11 05:19:00
12:37 AM,30.2,28.4,93,29.81,1.0,North,10.4,-,0.04,Snow,Light Snow,360,2013-04-11 05:37:00
12:56 AM,30.0,28.9,96,29.86,0.8,North,9.2,-,0.06,Snow,Light Snow,360,2013-04-11 05:56:00
1:05 AM,30.2,28.4,93,29.80,0.8,North,9.2,-,0.01,Snow,Light Snow,360,2013-04-11 06:05:00
1:23 AM,30.2,28.4,93,29.80,1.0,North,9.2,-,0.03,Snow,Light Snow,360,2013-04-11 06:23:00
1:38 AM,30.2,28.4,93,29.79,0.8,North,8.1,-,0.06,Snow,Light Snow,10,2013-04-11 06:38:00
1:56 AM,30.0,28.9,96,29.82,0.8,North,9.2,-,0.09,Snow,Light Snow,10,2013-04-11 06:56:00
2:03 AM,30.2,30.2,100,29.76,1.2,NNE,8.1,-,0.01,Snow,Light Snow,20,2013-04-11 07:03:00
2:24 AM,30.2,30.2,100,29.75,0.5,NNE,11.5,-,0.04,Fog-Snow,Snow,30,2013-04-11 07:24:00
2:37 AM,30.2,28.4,93,29.74,1.8,NNE,13.8,-,0.05,Snow,Light Snow,30,2013-04-11 07:37:00
2:44 AM,30.2,28.4,93,29.73,2.0,NNE,10.4,-,0.05,Snow,Light Snow,30,2013-04-11 07:44:00
2:56 AM,30.9,28.9,92,29.78,2.5,NNE,12.7,-,0.05,Snow,Light Snow,30,2013-04-11 07:56:00
3:18 AM,30.2,28.4,93,29.72,1.5,NNE,13.8,-,0.01,Snow,Light Snow,30,2013-04-11 08:18:00
3:47 AM,30.2,28.4,93,29.71,0.5,NE,15.0,-,0.02,Fog-Snow,Snow,40,2013-04-11 08:47:00
3:56 AM,30.0,28.9,96,29.76,0.8,NE,13.8,-,0.02,Snow,Light Snow,40,2013-04-11 08:56:00
4:06 AM,30.2,28.4,93,29.70,1.2,NE,18.4,21.9,0.01,Snow,Light Snow,40,2013-04-11 09:06:00
4:19 AM,30.2,28.4,93,29.69,2.5,NE,16.1,-,0.01,Snow,Light Snow,40,2013-04-11 09:19:00
4:26 AM,30.2,28.4,93,29.68,3.0,NNE,15.0,-,0.01,Snow,Light Snow,30,2013-04-11 09:26:00
4:45 AM,28.4,26.6,93,29.69,1.5,NE,17.3,-,0.01,Snow,Light Snow,40,2013-04-11 09:45:00
4:56 AM,28.9,28.0,96,29.74,1.2,NE,16.1,-,0.01,Snow,Light Snow,50,2013-04-11 09:56:00
5:06 AM,28.4,26.6,93,29.68,2.5,NE,13.8,-,0.00,Snow,Light Snow,40,2013-04-11 10:06:00
5:16 AM,28.4,26.6,93,29.67,3.0,NE,17.3,-,0.00,Snow,Light Snow,40,2013-04-11 10:16:00
5:56 AM,28.9,27.0,92,29.73,6.0,NE,15.0,-,0.00,Snow,Light Snow,50,2013-04-11 10:56:00
6:10 AM,28.4,26.6,93,29.66,9.0,NE,13.8,-,0.00,Snow,Light Snow,50,2013-04-11 11:10:00
6:56 AM,28.9,27.0,92,29.69,10.0,NNE,9.2,-,0.00,,Overcast,30,2013-04-11 11:56:00
7:23 AM,30.2,26.6,86,29.63,10.0,NE,12.7,-,N/A,,Overcast,40,2013-04-11 12:23:00
7:56 AM,30.0,27.0,88,29.70,10.0,NE,11.5,-,N/A,,Overcast,40,2013-04-11 12:56:00
8:30 AM,30.2,26.6,86,29.66,2.5,NE,10.4,-,0.00,Snow,Light Snow,50,2013-04-11 13:30:00
8:32 AM,30.2,26.6,86,29.66,1.0,NE,10.4,-,0.00,Snow,Light Snow,50,2013-04-11 13:32:00
8:45 AM,30.2,28.4,93,29.65,0.8,NE,10.4,-,0.00,Snow,Light Snow,50,2013-04-11 13:45:00
8:56 AM,30.0,28.0,92,29.70,1.0,NNE,6.9,-,0.00,Snow,Light Snow,30,2013-04-11 13:56:00
9:56 AM,30.9,28.0,89,29.69,1.5,NNE,9.2,-,0.01,Snow,Light Snow,30,2013-04-11 14:56:00
10:56 AM,30.9,28.9,92,29.71,1.5,NE,12.7,-,0.00,Snow,Light Snow,40,2013-04-11 15:56:00
11:35 AM,32.0,28.4,87,29.65,3.0,NNE,10.4,-,0.00,,Overcast,30,2013-04-11 16:35:00
11:56 AM,32.0,28.9,88,29.70,6.0,NNE,9.2,-,0.00,,Overcast,30,2013-04-11 16:56:00
12:56 PM,33.1,30.0,89,29.68,8.0,NNE,8.1,-,0.00,Snow,Light Snow,30,2013-04-11 17:56:00
1:56 PM,33.1,30.0,89,29.68,3.0,NNE,8.1,-,0.00,Snow,Light Snow,20,2013-04-11 18:56:00
2:32 PM,33.8,30.2,87,29.63,2.5,NNE,8.1,-,0.00,Snow,Light Snow,20,2013-04-11 19:32:00
2:42 PM,33.8,30.2,87,29.63,1.5,North,9.2,-,0.00,Snow,Light Snow,10,2013-04-11 19:42:00
2:51 PM,32.0,30.2,93,29.63,1.0,North,9.2,-,0.00,Snow,Light Snow,10,2013-04-11 19:51:00
2:56 PM,32.0,30.0,92,29.68,1.0,NNE,10.4,-,0.01,Snow,Light Snow,20,2013-04-11 19:56:00
3:03 PM,33.8,30.2,87,29.63,0.8,NNE,9.2,-,0.00,Snow,Light Snow,20,2013-04-11 20:03:00
3:27 PM,33.8,30.2,87,29.64,1.0,NNE,11.5,-,0.01,Snow,Light Snow,30,2013-04-11 20:27:00
3:36 PM,33.8,30.2,87,29.63,1.0,NNE,9.2,-,0.01,Snow,Light Snow,20,2013-04-11 20:36:00
3:43 PM,33.8,30.2,87,29.63,2.0,NNE,9.2,-,0.01,Snow,Light Snow,20,2013-04-11 20:43:00
3:56 PM,33.1,30.0,89,29.68,2.0,NNE,12.7,-,0.01,Snow,Light Snow,20,2013-04-11 20:56:00
4:04 PM,33.8,30.2,87,29.63,1.5,NNE,10.4,-,0.00,Snow,Light Snow,20,2013-04-11 21:04:00
4:56 PM,32.0,30.0,92,29.69,1.0,North,11.5,-,0.01,Snow,Light Snow,10,2013-04-11 21:56:00
5:06 PM,32.0,28.4,87,29.64,2.5,North,10.4,-,0.00,Snow,Light Snow,10,2013-04-11 22:06:00
5:31 PM,32.0,30.2,93,29.65,1.2,North,9.2,-,0.01,Snow,Light Snow,10,2013-04-11 22:31:00
5:56 PM,32.0,30.0,92,29.70,1.2,NNE,10.4,-,0.02,Snow,Light Snow,20,2013-04-11 22:56:00
6:41 PM,32.0,30.2,93,29.66,1.2,North,9.2,-,0.01,Snow,Light Snow,350,2013-04-11 23:41:00
6:46 PM,32.0,30.2,93,29.66,1.0,North,10.4,-,0.01,Snow,Light Snow,350,2013-04-11 23:46:00
6:56 PM,32.0,30.0,92,29.70,1.0,North,11.5,-,0.01,Snow,Light Snow,350,2013-04-11 23:56:00
7:14 PM,32.0,30.2,93,29.66,1.0,North,9.2,-,0.00,Snow,Light Snow,350,2013-04-12 00:14:00
7:20 PM,32.0,30.2,93,29.66,1.0,NNW,10.4,-,0.01,Snow,Light Snow,340,2013-04-12 00:20:00
7:56 PM,32.0,30.0,92,29.71,1.0,NNW,10.4,-,0.01,Snow,Light Snow,330,2013-04-12 00:56:00
8:03 PM,32.0,30.2,93,29.67,2.0,NNW,9.2,-,0.00,Snow,Light Snow,330,2013-04-12 01:03:00
8:34 PM,32.0,30.2,93,29.66,4.0,NNW,9.2,-,0.00,Snow,Light Snow,340,2013-04-12 01:34:00
8:56 PM,32.0,30.0,92,29.72,5.0,NNW,10.4,-,0.01,Snow,Light Snow,330,2013-04-12 01:56:00
9:56 PM,32.0,30.0,92,29.73,9.0,North,11.5,-,0.00,,Light Freezing Drizzle,350,2013-04-12 02:56:00
10:07 PM,32.0,30.2,93,29.69,10.0,North,11.5,-,0.00,,Light Freezing Drizzle,350,2013-04-12 03:07:00
10:56 PM,32.0,30.0,92,29.75,4.0,North,9.2,-,0.00,,Light Freezing Drizzle,350,2013-04-12 03:56:00
11:14 PM,30.2,30.2,100,29.70,4.0,NNE,12.7,-,0.00,,Light Freezing Drizzle,20,2013-04-12 04:14:00
11:56 PM,30.9,28.9,92,29.76,9.0,North,11.5,-,0.00,,Light Freezing Drizzle,360,2013-04-12 04:56:00